Home > Weather > Lucerne > Past weeks

Flag for Switzerland Weather for the Past 2 Weeks in Lucerne, Lucerne, Switzerland

Now
42 °F

Quite cool.


Feels Like: 40 °F
Forecast: 33 / 54 °F
Wind: 3 mph from Northeast

Location: Giswil

Current Time: Feb 7, 2016 at 6:24:02 PM

Latest Report: Feb 7, 2016 at 5:00 PM


Visibility: N/A

Pressure: 29.91 "Hg

Humidity: 93%

Dew point: 40 °F

Location of LucerneLocation

Historic Weather in Lucerne — Graph

°F

Lucerne Temperature Yesterday

Maximum temperature yesterday: 50 °F (at 4:00 PM)
Minimum temperature yesterday: 28 °F (at 2:00 AM)
Average temperature yesterday: 35 °F

High & Low Weather Summary for the Past Weeks

 TemperatureHumidityPressure
High62 °F (Feb 1, 2:00 PM)100% (Jan 24, 8:00 AM)30.73 "Hg (Jan 24, 8:00 AM)
Low26 °F (Jan 24, 5:00 AM)28% (Feb 7, 1:00 AM)29.62 "Hg (Feb 7, 10:00 AM)
Average40 °F87%30.34 "Hg
* Reported Jan 23 5:00 PM — Feb 7 5:00 PM, Lucerne, Weather by CustomWeather, © 2016

Note: Actual official high and low records may vary slightly from our data, if they occured in-between our weather recording intervals... More about our weather records

Advertising

Lucerne Weather History for the Previous 24 Hours

 ConditionsComfort  
Time TempWeatherWind HumidityBarometerVisibility
5:00 PM
Sun, Feb 7
42 °FQuite cool.3 mph93%29.91 "HgN/A
4:00 PM43 °FQuite cool.5 mph86%29.88 "HgN/A
3:00 PM47 °FCool.6 mph74%29.83 "HgN/A
2:00 PM49 °FCool.2 mph64%29.76 "HgN/A
1:00 PM49 °FCool.5 mph57%29.72 "HgN/A
12:00 PM48 °FCool.2 mph63%29.68 "HgN/A
11:00 AM46 °FCool.5 mph65%29.65 "HgN/A
10:00 AM44 °FQuite cool.3 mph69%29.62 "HgN/A
9:00 AM45 °FQuite cool.6 mph66%29.63 "HgN/A
8:00 AM43 °FQuite cool.5 mph75%29.66 "HgN/A
7:00 AM43 °FQuite cool.6 mph75%29.65 "HgN/A
6:00 AM44 °FQuite cool.6 mph73%29.67 "HgN/A
5:00 AM44 °FQuite cool.5 mph72%29.72 "HgN/A
4:00 AM45 °FCool.6 mph66%29.73 "HgN/A
3:00 AM45 °FQuite cool.12 mph66%29.73 "HgN/A
1:00 AM58 °FRefreshingly cool.6 mph28%29.74 "HgN/A
9:00 PM
Sat, Feb 6
36 °FChilly.3 mph93%29.90 "HgN/A
8:00 PM35 °FChilly.2 mph92%29.95 "HgN/A
7:00 PM36 °FChilly.1 mph90%29.96 "HgN/A
6:00 PM37 °FChilly.2 mph92%29.99 "HgN/A
Weather by CustomWeather, © 2016

See weather overviewHow to use our weather pages